Weather History for Drummond Island, MI

Change the Weather History Date:

Friday, February 15, 2013

  Actual Average (KCIU) Record (KCIU)
Temperature  
Mean Temperature 18 °F -  
Max Temperature 25 °F 29 °F 48 °F (1981)
Min Temperature 11 °F 6 °F -14 °F (2003)
Degree Days  
Heating Degree Days 46    
Moisture  
Dew Point 11 °F    
Average Humidity 81    
Maximum Humidity 96    
Minimum Humidity 65    
Precipitation  
Precipitation 0.00 in - - ()
Sea Level Pressure  
Sea Level Pressure 29.95 in    
Wind  
Wind Speed 7 mph (NW)    
Max Wind Speed 13 mph    
Max Gust Speed 17 mph    
Visibility 9 miles    
Events Snow    
Averages and records for this station are not official NWS values.
T = Trace of Precipitation, MM = Missing Value Source: NWS Daily Summary

Daily Weather History Graph

Daily Weather History Graph

Search for Another Location

Airport:

Trip Planner

Search our weather history database for the weather conditions in past years. The results will help you decide how hot, cold, wet, or windy it might be!

Date:

Astronomy

Feb. 15, 2013 Rise Set
Actual Time 7:37 AM EST 6:01 PM EST
Civil Twilight 7:06 AM EST 6:32 PM EST
Nautical Twilight 6:31 AM EST 7:07 PM EST
Astronomical Twilight 5:56 AM EST 7:41 PM EST
Moon 9:51 AM EST (2/15) No Moon Set
Length of Visible Light 11h 25m
Length of Day
10h 24m
Waxing Crescent, 30% of the Moon is Illuminated
Feb 15
Waxing Crescent
Feb 17
First Quarter
Feb 25
Full
Mar 4
Last Quarter
Mar 11
New

Hourly Weather History & Observations

Time (EST) Temp. Windchill Dew Point Humidity Pressure Visibility Wind Dir Wind Speed Gust Speed Precip Events Conditions
12:16 AM 26.2 °F 17.8 °F 24.4 °F 93% 29.71 in 7.0 mi NNW 8.1 mph - N/A Snow Light Snow
12:36 AM 25.9 °F 17.4 °F 24.4 °F 94% 29.72 in 5.0 mi NNW 8.1 mph - N/A Snow Light Snow
12:56 AM 25.3 °F 16.7 °F 24.3 °F 96% 29.73 in 4.0 mi NW 8.1 mph - N/A Snow Light Snow
1:16 AM 24.4 °F 16.5 °F 23.4 °F 96% 29.74 in 3.0 mi NNW 6.9 mph - N/A Snow Light Snow
1:36 AM 23.5 °F 15.4 °F 22.1 °F 94% 29.75 in 3.0 mi NNW 6.9 mph - N/A Snow Light Snow
1:56 AM 22.6 °F 12.6 °F 21.2 °F 94% 29.75 in 4.0 mi NNW 9.2 mph - N/A Snow Light Snow
2:16 AM 21.0 °F 13.4 °F 18.9 °F 91% 29.77 in 7.0 mi NNW 5.8 mph - N/A Snow Light Snow
2:35 AM 21.0 °F 11.4 °F 19.2 °F 93% 29.78 in 7.0 mi NNW 8.1 mph - N/A Snow Light Snow
2:56 AM 20.3 °F 11.5 °F 18.1 °F 91% 29.79 in 5.0 mi NW 6.9 mph - N/A Snow Light Snow
3:16 AM 19.4 °F 9.5 °F 17.4 °F 92% 29.80 in 3.0 mi NNW 8.1 mph - N/A Snow Light Snow
3:36 AM 19.0 °F 10.0 °F 16.5 °F 90% 29.80 in 4.0 mi NNW 6.9 mph - N/A Snow Light Snow
3:56 AM 18.3 °F 11.5 °F 15.8 °F 90% 29.81 in 3.0 mi NNW 4.6 mph - N/A Snow Light Snow
4:15 AM 17.6 °F 7.3 °F 14.5 °F 88% 29.82 in 7.0 mi NNW 8.1 mph - N/A Snow Light Snow
4:36 AM 16.7 °F 8.3 °F 13.1 °F 86% 29.83 in 10.0 mi NNW 5.8 mph - N/A Snow Light Snow
4:56 AM 16.5 °F 8.1 °F 12.2 °F 83% 29.84 in 10.0 mi NNW 5.8 mph - N/A Snow Light Snow
5:16 AM 16.5 °F 6.9 °F 12.7 °F 85% 29.85 in 10.0 mi NNW 6.9 mph - N/A Snow Light Snow
5:36 AM 16.5 °F 6.0 °F 12.4 °F 84% 29.86 in 10.0 mi NNW 8.1 mph - N/A   Overcast
5:56 AM 15.6 °F 5.9 °F 11.3 °F 83% 29.87 in 10.0 mi NNW 6.9 mph 16.1 mph N/A   Overcast
6:16 AM 14.9 °F 4.0 °F 10.6 °F 83% 29.88 in 10.0 mi NNW 8.1 mph - N/A   Overcast
6:36 AM 14.9 °F 6.1 °F 11.1 °F 85% 29.89 in 10.0 mi NW 5.8 mph - N/A   Overcast
6:56 AM 14.9 °F 4.0 °F 10.6 °F 83% 29.90 in 10.0 mi NW 8.1 mph - N/A   Overcast
7:16 AM 14.7 °F 3.8 °F 10.4 °F 83% 29.91 in 10.0 mi NW 8.1 mph - N/A   Overcast
7:36 AM 13.8 °F 3.7 °F 9.3 °F 82% 29.92 in 10.0 mi NNW 6.9 mph - N/A   Overcast
7:56 AM 12.7 °F 5.0 °F 8.8 °F 84% 29.93 in 10.0 mi NW 4.6 mph - N/A   Mostly Cloudy
8:16 AM 12.2 °F 1.7 °F 7.9 °F 83% 29.94 in 10.0 mi NW 6.9 mph - N/A   Scattered Clouds
8:36 AM 11.3 °F 3.3 °F 7.0 °F 83% 29.95 in 10.0 mi NW 4.6 mph - N/A   Scattered Clouds
8:55 AM 11.7 °F 1.1 °F 6.8 °F 81% 29.96 in 10.0 mi NW 6.9 mph - N/A   Clear
9:16 AM 11.8 °F 0.3 °F 6.8 °F 80% 29.97 in 10.0 mi NNW 8.1 mph - N/A   Clear
9:35 AM 12.2 °F 1.7 °F 6.8 °F 79% 29.97 in 10.0 mi NNW 6.9 mph - N/A   Clear
9:56 AM 12.9 °F 2.6 °F 6.8 °F 77% 29.98 in 10.0 mi NNW 6.9 mph - N/A   Clear
10:16 AM 12.9 °F 1.6 °F 7.0 °F 77% 29.98 in 10.0 mi NNW 8.1 mph - N/A   Clear
10:35 AM 13.6 °F 3.5 °F 7.7 °F 77% 29.98 in 10.0 mi North 6.9 mph - N/A   Clear
10:56 AM 14.0 °F 6.5 °F 7.9 °F 77% 29.99 in 10.0 mi North 4.6 mph - N/A   Clear
11:16 AM 14.4 °F 5.5 °F 8.1 °F 76% 30.00 in 10.0 mi North 5.8 mph - N/A   Clear
11:36 AM 14.7 °F 5.9 °F 8.2 °F 75% 30.00 in 10.0 mi North 5.8 mph - N/A   Clear
11:56 AM 14.9 °F 6.1 °F 8.2 °F 75% 30.00 in 10.0 mi North 5.8 mph - N/A   Clear
12:16 PM 15.4 °F 8.1 °F 8.2 °F 73% 30.00 in 10.0 mi North 4.6 mph - N/A   Clear
12:56 PM 18.3 °F 10.2 °F 9.5 °F 68% 30.00 in 10.0 mi NW 5.8 mph - N/A   Mostly Cloudy
1:16 PM 18.3 °F 8.2 °F 9.3 °F 68% 30.00 in 10.0 mi West 8.1 mph 16.1 mph N/A   Mostly Cloudy
1:36 PM 18.7 °F 10.6 °F 8.6 °F 65% 30.00 in 10.0 mi WNW 5.8 mph 16.1 mph N/A   Mostly Cloudy
1:56 PM 18.5 °F 7.5 °F 8.8 °F 66% 30.00 in 10.0 mi WNW 9.2 mph - N/A   Scattered Clouds
2:16 PM 19.2 °F 6.4 °F 9.5 °F 66% 30.00 in 10.0 mi WNW 12.7 mph 17.3 mph N/A   Mostly Cloudy
2:36 PM 18.7 °F 7.0 °F 9.0 °F 66% 30.00 in 10.0 mi WNW 10.4 mph 16.1 mph N/A   Scattered Clouds
2:56 PM 19.2 °F 9.3 °F 9.3 °F 65% 30.00 in 10.0 mi WNW 8.1 mph - N/A   Scattered Clouds
3:16 PM 19.0 °F 9.0 °F 9.3 °F 66% 30.00 in 10.0 mi NW 8.1 mph 17.3 mph N/A   Mostly Cloudy
3:36 PM 18.5 °F 8.4 °F 9.1 °F 67% 30.00 in 10.0 mi WNW 8.1 mph - N/A   Overcast
3:56 PM 19.2 °F 10.2 °F 9.3 °F 65% 30.01 in 10.0 mi NW 6.9 mph - N/A   Overcast
4:16 PM 18.9 °F 9.8 °F 9.3 °F 66% 30.01 in 10.0 mi NW 6.9 mph - N/A   Overcast
4:35 PM 17.4 °F 8.0 °F 9.3 °F 71% 30.02 in 10.0 mi WNW 6.9 mph - N/A   Overcast
4:56 PM 17.1 °F 7.6 °F 9.5 °F 72% 30.02 in 10.0 mi NW 6.9 mph - N/A   Overcast
5:16 PM 16.3 °F 9.2 °F 10.4 °F 77% 30.03 in 10.0 mi NW 4.6 mph - N/A   Overcast
5:35 PM 16.2 °F 9.0 °F 10.4 °F 78% 30.03 in 10.0 mi NW 4.6 mph - N/A   Overcast
5:56 PM 15.8 °F - 9.9 °F 77% 30.04 in 10.0 mi Calm Calm - N/A   Overcast
6:16 PM 15.8 °F 10.2 °F 10.0 °F 78% 30.04 in 10.0 mi NW 3.5 mph - N/A   Overcast
6:36 PM 15.4 °F 8.1 °F 9.5 °F 77% 30.04 in 10.0 mi NNW 4.6 mph - N/A   Overcast
6:56 PM 15.6 °F 8.3 °F 9.1 °F 76% 30.05 in 10.0 mi NNW 4.6 mph - N/A   Overcast
7:16 PM 15.6 °F 10.0 °F 9.3 °F 76% 30.06 in 10.0 mi NW 3.5 mph - N/A   Overcast
7:36 PM 15.4 °F - 9.1 °F 76% 30.06 in 10.0 mi Calm Calm - N/A   Overcast
7:56 PM 14.9 °F - 9.3 °F 79% 30.05 in 10.0 mi Calm Calm - N/A   Overcast
8:16 PM 14.9 °F 7.5 °F 9.3 °F 79% 30.06 in 10.0 mi NW 4.6 mph - N/A   Overcast
8:36 PM 14.9 °F 9.2 °F 10.2 °F 82% 30.06 in 10.0 mi NNW 3.5 mph - N/A   Overcast
8:56 PM 14.7 °F 7.3 °F 10.2 °F 82% 30.06 in 10.0 mi NNW 4.6 mph - N/A   Overcast
9:16 PM 14.9 °F 5.0 °F 10.4 °F 82% 30.06 in 10.0 mi NNW 6.9 mph - N/A   Overcast
9:36 PM 14.4 °F 4.3 °F 10.2 °F 84% 30.06 in 10.0 mi NW 6.9 mph - N/A   Overcast
9:55 PM 14.4 °F 5.5 °F 10.4 °F 84% 30.06 in 10.0 mi NW 5.8 mph - N/A   Overcast
10:16 PM 14.4 °F - 10.8 °F 86% 30.06 in 10.0 mi Calm Calm - N/A   Overcast
10:36 PM 14.2 °F 6.7 °F 10.6 °F 86% 30.06 in 10.0 mi NW 4.6 mph - N/A   Overcast
10:56 PM 14.0 °F - 10.4 °F 86% 30.05 in 10.0 mi Calm Calm - N/A   Overcast
11:16 PM 12.9 °F - 10.0 °F 88% 30.04 in 10.0 mi Calm Calm - N/A   Overcast
11:35 PM 12.7 °F - 10.0 °F 89% 30.05 in 10.0 mi Calm Calm - N/A   Overcast
11:56 PM 13.3 °F - 10.4 °F 88% 30.05 in 10.0 mi Calm Calm - N/A   Overcast